Regional Weather Roundup
Issued by NWS Green Bay, WI

Home | Current Version | Previous Version | Graphics & Text | Print | Product List | Glossary Off
Versions: 1 2 3 4 5 6 7 8 9 10 11 12 13 14 15 16 17 18 19 20 21 22 23 24 25 26 27 28 29 30 31 32 33 34 35 36 37 38 39 40 41 42 43 44 45 46 47 48 49 50

000
ASUS43 KGRB 280111
RWRGRB

NORTH-CENTRAL AND NORTHEAST WISCONSIN REGIONAL WEATHER ROUNDUP
NATIONAL WEATHER SERVICE GREEN BAY WI
800 PM CDT TUE JUN 27 2017

WIZ005-009-010>012-018-019-280200-
NORTH CENTRAL WISCONSIN

CITY           SKY/WX    TMP DP  RH WIND       PRES   REMARKS
IRONWOOD       CLEAR     69  48  47 SW8       29.89S
MANITOWISH WTR NOT AVBL
ARBOR VITAE    NOT AVBL
EAGLE RIVER    NOT AVBL
LAND O LAKES   NOT AVBL
RHINELANDER    CLEAR     67  48  50 SW8       29.94S
PHILLIPS       NOT AVBL
ANTIGO         NOT AVBL
TOMAHAWK       NOT AVBL
MERRILL        NOT AVBL
$$

WIZ013-073-280200-
NORTHEAST WISCONSIN

CITY           SKY/WX    TMP DP  RH WIND       PRES   REMARKS
IRON MOUNTAIN  CLEAR     71  46  40 SW7       29.91S
MARINETTE      CLEAR     70  50  49 SW5       29.93F
$$

WIZ017-030-035>037-045-280200-
CENTRAL WISCONSIN

CITY           SKY/WX    TMP DP  RH WIND       PRES   REMARKS
MEDFORD        NOT AVBL
WAUSAU           N/A    N/A N/A N/A MISG      29.92F
MOSINEE        MOCLDY    68  46  45 S8        29.96S
MARSHFIELD     CLOUDY    68  47  46 S8        29.93F
WISC RAPIDS    PTCLDY    70  50  49 SW8       29.95F
STEVENS POINT  NOT AVBL
WAUPACA        NOT AVBL
SHAWANO        NOT AVBL
CLINTONVILLE   NOT AVBL
WAUTOMA        CLOUDY    70  51  51 S6        29.96F
$$

WIZ038-039-048-051-280200-
FOX VALLEY

CITY           SKY/WX    TMP DP  RH WIND       PRES   REMARKS
NWS GREEN BAY  CLEAR     71  52  50 SW5       29.95F
APPLETON       PTCLDY    70  45  40 SW7       29.95F
OSHKOSH        CLEAR     69  48  47 S7        29.96F
FOND DU LAC    CLEAR     70  45  40 S5        29.98S
$$

WIZ022-050-052-280200-
EAST CENTRAL WISCONSIN

CITY           SKY/WX    TMP DP  RH WIND       PRES   REMARKS
EPHRAIM        NOT AVBL
WASHINGTON ISL NOT AVBL
STURGEON BAY     N/A     66  55  67 S6        29.95F
MANITOWOC      CLEAR     71  48  43 SW3       29.97F
SHEBOYGAN      CLEAR     69  50  50 SW7       29.98F
$$

LMZ563-521-522-541>543-280200-
LAKESHORE

STATION/POSITION TIME  TEMP    WIND        PRES    VSBY  WAVE
                       AIR SEA DIR/SP/G                  HT/PER
                 (UTC) (F)     (DEG/KT/KT) (MB)    (MI)  (FT/S)
SHEBOYGAN LKSHOR 0100   63     180/ 16/ 17 1015.0F
KEWAUNEE LKSHORE 0042   57     170/ 12/ 12 1014.2S
ALGOMA MARINA    0102   63     210/  7/  9   N/A
NORTHPORT PIER   0040   64     160/  6/ 11 1013.9F
N MID LAKE BUOY  0050   58 55  190/ 14/ 14 1014.9F         1/ 3
S GREEN BAY BUOY 0100   69     220/  8/ 10 1013.6
SISTER BAY LKSHO 0023   69     170/  9/ 14   N/A
CHAMBERS ISLAND  0030   67     140/  5/  8 1013.2F
MENOMINEE LKSHOR 0048          180/  7/  9 1012.6F
$$



USA.gov is the U.S. government's official web portal to all federal, state and local government web resources and services.